City Of Port Allen — WDD9053 — position and weather

sailwx.info

Track history (hours):
 
Tides and Currents Weather Stations Pressure Air Temp Water Temp Dewpoint Dewpoint Depression Visibility Wind Speed Wind Dir Waves Ship Positions

City Of Port Allen

Owner: Ingram Barge Company LLC, Nashville, TN. More information available from US FCC via Universal Licensing System and Coast Guard Vessel Documentation Center.

Last reported at 2018-Feb-20 13:00 UTC. Time now 2018-Feb-20 13:18 UTC.
Position N 29°56' W 093°07'.

Length 23 m; draft 2.3 m.

Type: Towing. MMSI: 367306270.

Date/timePositionNaut miles runAvg speedWind from/ knotsBaromVisibWave heightAir tempDewpointWater temp
2018-Feb-20 13:00N 29°56' W 093°07'2 3.7
2018-Feb-20 12:30N 29°56' W 093°09'2 3.6
2018-Feb-20 12:00N 29°57' W 093°11'2 3.7
2018-Feb-20 11:30N 29°59' W 093°12'2 3.4
2018-Feb-20 11:00N 29°60' W 093°13'2 3.5
2018-Feb-20 10:31N 30°02' W 093°14'2 3.5
2018-Feb-20 10:01N 30°03' W 093°16'2 3.5
2018-Feb-20 09:30N 30°04' W 093°16'2 3.3
2018-Feb-20 09:00N 30°05' W 093°18'1 1.6
2018-Feb-20 08:30N 30°06' W 093°18'0 0.1
2018-Feb-20 07:46N 30°06' W 093°18'0 0.0
2018-Feb-20 07:30N 30°06' W 093°18'0 0.1
2018-Feb-20 07:00N 30°06' W 093°18'1 2.3
2018-Feb-20 06:30N 30°06' W 093°19'2 3.8
2018-Feb-20 06:00N 30°04' W 093°21'2 3.3
2018-Feb-20 05:30N 30°04' W 093°23'2 3.5
2018-Feb-20 05:00N 30°04' W 093°25'2 3.4
2018-Feb-20 04:31N 30°04' W 093°27'2 3.4
2018-Feb-20 04:01N 30°04' W 093°28'1 1.8
2018-Feb-20 03:30N 30°04' W 093°30'2 3.6
2018-Feb-20 03:00N 30°04' W 093°32'2 3.4
2018-Feb-20 02:30N 30°04' W 093°34'2 3.7
2018-Feb-20 02:00N 30°04' W 093°36'1 2.4
2018-Feb-20 01:30N 30°04' W 093°37'1 2.5
2018-Feb-20 01:00N 30°04' W 093°36'2 4.9
2018-Feb-20 00:30N 30°04' W 093°33'2 5.0
2018-Feb-20 00:00N 30°04' W 093°30'3 5.2
2018-Feb-19 23:31N 30°04' W 093°27'3 5.2
2018-Feb-19 23:00N 30°04' W 093°24'2 3.4
2018-Feb-19 22:30N 30°04' W 093°22'0 0.6
2018-Feb-19 22:00N 30°04' W 093°22'0 0.7
2018-Feb-19 21:30N 30°04' W 093°22'0 0.4
2018-Feb-19 21:00N 30°04' W 093°22'0 0.5
2018-Feb-19 20:31N 30°04' W 093°22'0 0.2
2018-Feb-19 20:00N 30°04' W 093°22'0 0.1
2018-Feb-19 19:31N 30°04' W 093°22'1 1.0
2018-Feb-19 19:00N 30°04' W 093°21'1 2.4
2018-Feb-19 18:30N 30°05' W 093°20'0 0.1
2018-Feb-19 18:00N 30°04' W 093°20'0 0.0
2018-Feb-19 17:31N 30°04' W 093°20'0 0.1
2018-Feb-19 17:00N 30°05' W 093°20'2 3.8
2018-Feb-19 16:30N 30°06' W 093°19'1 2.9
2018-Feb-19 16:01N 30°05' W 093°18'1 1.8
2018-Feb-19 15:31N 30°05' W 093°17'0 0.1
2018-Feb-19 15:00N 30°05' W 093°17'0 0.0
2018-Feb-19 14:28N 30°05' W 093°17'0 0.1
2018-Feb-19 13:55N 30°05' W 093°17'0 0.7
2018-Feb-19 13:31N 30°05' W 093°17'0 0.0
2018-Feb-19 13:00N 30°05' W 093°17'0 0.0
2018-Feb-19 12:30N 30°05' W 093°17'0 0.0
2018-Feb-19 12:01N 30°05' W 093°17'0 0.0
2018-Feb-19 11:30N 30°05' W 093°17'0 0.0
2018-Feb-19 10:59N 30°05' W 093°17'0 0.0
2018-Feb-19 10:31N 30°05' W 093°17'0 0.0
2018-Feb-19 10:00N 30°05' W 093°17'0 0.0
2018-Feb-19 09:29N 30°05' W 093°17'0 0.0
2018-Feb-19 09:00N 30°05' W 093°17'0 0.0
2018-Feb-19 08:30N 30°05' W 093°17'0 0.0
2018-Feb-19 08:01N 30°05' W 093°17'0 0.0
2018-Feb-19 07:31N 30°05' W 093°17'0 0.0
2018-Feb-19 06:58N 30°05' W 093°17'0 0.6
2018-Feb-19 06:31N 30°05' W 093°17'1 2.8
2018-Feb-19 06:00N 30°03' W 093°16'2 4.3
2018-Feb-19 05:29N 30°02' W 093°14'2 4.1
2018-Feb-19 05:00N 29°60' W 093°13'0 0.1
2018-Feb-19 04:31N 29°60' W 093°13'0 0.2
2018-Feb-19 04:00N 29°60' W 093°13'0 0.2
2018-Feb-19 03:31N 29°60' W 093°13'0 0.2
2018-Feb-19 03:01N 29°60' W 093°13'0 0.0
2018-Feb-19 02:31N 29°60' W 093°13'1 2.8
2018-Feb-19 02:00N 29°59' W 093°12'2 3.4
2018-Feb-19 01:31N 29°57' W 093°11'2 3.9
2018-Feb-19 01:00N 29°56' W 093°09'2 4.3
2018-Feb-19 00:30N 29°56' W 093°07'3 5.1
2018-Feb-18 23:57N 29°56' W 093°03'36 4.2
2018-Feb-18 15:17N 29°51' W 092°22'2 2.2
2018-Feb-18 14:32N 29°51' W 092°20'0 1.4
2018-Feb-18 14:30N 29°51' W 092°20'1 1.5
2018-Feb-18 13:57N 29°50' W 092°19'1 3.3
2018-Feb-18 13:31N 29°50' W 092°18'0 0.1
2018-Feb-18 13:01N 29°49' W 092°18'0 0.3
2018-Feb-18 12:30N 29°49' W 092°17'0 0.0
2018-Feb-18 11:59N 29°49' W 092°17'0 0.0
2018-Feb-18 11:31N 29°49' W 092°17'0 0.0
2018-Feb-18 11:01N 29°49' W 092°17'0 0.0
2018-Feb-18 10:31N 29°49' W 092°17'0 0.0
2018-Feb-18 10:01N 29°49' W 092°17'0 0.0
2018-Feb-18 09:30N 29°49' W 092°17'0 0.0
2018-Feb-18 09:01N 29°49' W 092°17'0 0.0
2018-Feb-18 08:31N 29°49' W 092°17'0 0.0
2018-Feb-18 08:00N 29°49' W 092°17'0 0.0
2018-Feb-18 07:31N 29°49' W 092°17'0 0.0
2018-Feb-18 07:01N 29°49' W 092°17'0 0.0
2018-Feb-18 06:30N 29°49' W 092°17'0 0.0
2018-Feb-18 06:01N 29°49' W 092°17'0 0.0
2018-Feb-18 05:30N 29°49' W 092°17'0 0.0
2018-Feb-18 05:00N 29°49' W 092°17'0 0.0
2018-Feb-18 04:30N 29°49' W 092°17'0 0.0
2018-Feb-18 04:00N 29°49' W 092°17'1 1.3
2018-Feb-18 03:31N 29°49' W 092°17'1 1.9
2018-Feb-18 03:01N 29°48' W 092°16'2 4.2
2018-Feb-18 02:30N 29°48' W 092°14'2 3.7
2018-Feb-18 02:00N 29°47' W 092°12'1 2.4
2018-Feb-18 01:31N 29°47' W 092°10'3 5.0
2018-Feb-18 01:00N 29°47' W 092°08'2 4.7
2018-Feb-18 00:31N 29°48' W 092°05'2 4.6
2018-Feb-18 00:00N 29°49' W 092°03'  
2018-Feb-12 13:15N 29°56' W 093°07'1 4.7
2018-Feb-12 13:01N 29°56' W 093°08'2 4.5
2018-Feb-12 12:30N 29°57' W 093°10'2 4.7
2018-Feb-12 11:59N 29°59' W 093°12'2 4.3
2018-Feb-12 11:27N 30°01' W 093°14'2 3.9
2018-Feb-12 10:59N 30°02' W 093°15'2 3.9
2018-Feb-12 10:31N 30°04' W 093°16'2 3.7
2018-Feb-12 09:55N 30°05' W 093°18'1 2.5
2018-Feb-12 09:25N 30°06' W 093°19'0 0.1
2018-Feb-12 09:01N 30°06' W 093°19'0 0.0
2018-Feb-12 08:29N 30°06' W 093°19'0 0.1
2018-Feb-12 08:00N 30°06' W 093°19'0 0.1
2018-Feb-12 07:31N 30°06' W 093°19'0 0.0
2018-Feb-12 06:57N 30°06' W 093°19'0 1.0
2018-Feb-12 06:30N 30°06' W 093°19'1 1.2
2018-Feb-12 05:55N 30°05' W 093°20'0 0.0
2018-Feb-12 05:31N 30°05' W 093°20'0 0.0
2018-Feb-12 05:00N 30°05' W 093°20'0 0.0
2018-Feb-12 04:27N 30°05' W 093°20'0 0.0
2018-Feb-12 03:57N 30°05' W 093°20'0 0.0
2018-Feb-12 03:30N 30°05' W 093°20'0 0.0
2018-Feb-12 02:59N 30°05' W 093°20'0 0.0
2018-Feb-12 02:29N 30°05' W 093°20'0 0.0
2018-Feb-12 02:01N 30°05' W 093°20'0 0.0
2018-Feb-12 01:30N 30°05' W 093°20'0 0.0
2018-Feb-12 01:00N 30°05' W 093°20'0 0.0
2018-Feb-12 00:30N 30°05' W 093°20'0 0.0
2018-Feb-12 00:01N 30°05' W 093°20'0 0.0
2018-Feb-11 23:31N 30°05' W 093°20'0 0.0
2018-Feb-11 22:59N 30°05' W 093°20'2 3.5
2018-Feb-11 22:30N 30°04' W 093°21'3 5.1
2018-Feb-11 22:00N 30°04' W 093°24'3 4.8
2018-Feb-11 21:29N 30°04' W 093°27'3 4.9
2018-Feb-11 20:55N 30°04' W 093°30'5 4.8
2018-Feb-11 19:48N 30°04' W 093°36'2 4.5
2018-Feb-11 19:19N 30°04' W 093°39'2 4.6
2018-Feb-11 18:59N 30°04' W 093°40'2 4.5
2018-Feb-11 18:30N 30°03' W 093°43'2 3.4
2018-Feb-11 18:00N 30°02' W 093°44'2 4.2
2018-Feb-11 17:30N 30°00' W 093°46'2 4.3
2018-Feb-11 17:00N 29°59' W 093°48'2 4.8
2018-Feb-11 16:30N 29°58' W 093°50'2 4.4
2018-Feb-11 16:00N 29°57' W 093°52'1 1.4
2018-Feb-11 15:30N 29°56' W 093°52'0 0.0
2018-Feb-11 14:58N 29°56' W 093°52'0 0.0
2018-Feb-11 14:30N 29°56' W 093°52'0 0.0
2018-Feb-11 14:00N 29°56' W 093°52'0 0.0
2018-Feb-11 13:30N 29°56' W 093°52'0 0.0
2018-Feb-11 13:00N 29°56' W 093°52'0 0.0
2018-Feb-11 12:26N 29°56' W 093°52'0 0.0
2018-Feb-11 11:56N 29°56' W 093°52'0 0.0
2018-Feb-11 11:30N 29°56' W 093°52'0 0.0
2018-Feb-11 11:00N 29°56' W 093°52'0 0.0
2018-Feb-11 10:21N 29°56' W 093°52'0 0.0
2018-Feb-11 09:58N 29°56' W 093°52'0 0.0
2018-Feb-11 09:30N 29°56' W 093°52'0 0.0
2018-Feb-11 09:00N 29°56' W 093°52'0 0.0
2018-Feb-11 08:30N 29°56' W 093°52'0 0.0
2018-Feb-11 07:59N 29°56' W 093°52'0 0.0
2018-Feb-11 07:30N 29°56' W 093°52'0 0.0
2018-Feb-11 07:00N 29°56' W 093°52'0 0.0
2018-Feb-11 06:26N 29°56' W 093°52'0 0.0
2018-Feb-11 06:00N 29°56' W 093°52'0 0.0
2018-Feb-11 05:30N 29°56' W 093°52'0 0.0
2018-Feb-11 05:00N 29°56' W 093°52'0 0.0
2018-Feb-11 04:26N 29°56' W 093°52'0 0.0
2018-Feb-11 03:57N 29°56' W 093°52'0 0.1
2018-Feb-11 03:30N 29°56' W 093°52'0 0.1
2018-Feb-11 03:00N 29°56' W 093°52'0 0.0
2018-Feb-11 02:30N 29°56' W 093°52'0 0.0
2018-Feb-11 02:00N 29°56' W 093°52'0 0.0
2018-Feb-11 01:30N 29°56' W 093°52'2 3.9
2018-Feb-11 01:00N 29°54' W 093°54'3 6.2
2018-Feb-11 00:30N 29°52' W 093°56'3 5.7
2018-Feb-11 00:00N 29°50' W 093°58'2 4.4
2018-Feb-10 23:30N 29°49' W 093°60'2 4.5
2018-Feb-10 23:00N 29°47' W 094°02'2 4.1
2018-Feb-10 22:30N 29°46' W 094°03'2 3.3
2018-Feb-10 22:00N 29°45' W 094°05'2 3.4
2018-Feb-10 21:30N 29°44' W 094°06'2 3.9
2018-Feb-10 21:00N 29°42' W 094°08'2 3.7
2018-Feb-10 20:30N 29°41' W 094°10'1 2.8
2018-Feb-10 20:00N 29°41' W 094°12'1 2.6
2018-Feb-10 19:30N 29°40' W 094°13'2 3.7
2018-Feb-10 19:00N 29°40' W 094°15'4 2.8
2018-Feb-10 17:30N 29°38' W 094°19'0 0.0
2018-Feb-10 16:36N 29°38' W 094°19'0 0.1
2018-Feb-10 16:30N 29°38' W 094°19'0 0.0
2018-Feb-10 16:00N 29°38' W 094°19'0 0.1
2018-Feb-10 15:22N 29°38' W 094°19'0 0.0
2018-Feb-10 15:00N 29°38' W 094°19'0 0.1
2018-Feb-10 14:28N 29°38' W 094°19'0 0.5
2018-Feb-10 14:00N 29°37' W 094°19'1 2.3
2018-Feb-10 13:25N 29°37' W 094°21'  
Track history (hours):
 
Tides and Currents Weather Stations Pressure Air Temp Water Temp Dewpoint Dewpoint Depression Visibility Wind Speed Wind Dir Waves Ship Positions

City Of Port Allen

Owner: Ingram Barge Company LLC, Nashville, TN. More information available from US FCC via Universal Licensing System and Coast Guard Vessel Documentation Center.

Last reported at 2018-Feb-20 13:00 UTC. Time now 2018-Feb-20 13:18 UTC.
Position N 29°56' W 093°07'.

Length 23 m; draft 2.3 m.

Type: Towing. MMSI: 367306270.

Date/timePositionNaut miles runAvg speedWind from/ knotsBaromVisibWave heightAir tempDewpointWater temp
2018-Feb-20 13:00N 29°56' W 093°07'2 3.7
2018-Feb-20 12:30N 29°56' W 093°09'2 3.6
2018-Feb-20 12:00N 29°57' W 093°11'2 3.7
2018-Feb-20 11:30N 29°59' W 093°12'2 3.4
2018-Feb-20 11:00N 29°60' W 093°13'2 3.5
2018-Feb-20 10:31N 30°02' W 093°14'2 3.5
2018-Feb-20 10:01N 30°03' W 093°16'2 3.5
2018-Feb-20 09:30N 30°04' W 093°16'2 3.3
2018-Feb-20 09:00N 30°05' W 093°18'1 1.6
2018-Feb-20 08:30N 30°06' W 093°18'0 0.1
2018-Feb-20 07:46N 30°06' W 093°18'0 0.0
2018-Feb-20 07:30N 30°06' W 093°18'0 0.1
2018-Feb-20 07:00N 30°06' W 093°18'1 2.3
2018-Feb-20 06:30N 30°06' W 093°19'2 3.8
2018-Feb-20 06:00N 30°04' W 093°21'2 3.3
2018-Feb-20 05:30N 30°04' W 093°23'2 3.5
2018-Feb-20 05:00N 30°04' W 093°25'2 3.4
2018-Feb-20 04:31N 30°04' W 093°27'2 3.4
2018-Feb-20 04:01N 30°04' W 093°28'1 1.8
2018-Feb-20 03:30N 30°04' W 093°30'2 3.6
2018-Feb-20 03:00N 30°04' W 093°32'2 3.4
2018-Feb-20 02:30N 30°04' W 093°34'2 3.7
2018-Feb-20 02:00N 30°04' W 093°36'1 2.4
2018-Feb-20 01:30N 30°04' W 093°37'1 2.5
2018-Feb-20 01:00N 30°04' W 093°36'2 4.9
2018-Feb-20 00:30N 30°04' W 093°33'2 5.0
2018-Feb-20 00:00N 30°04' W 093°30'3 5.2
2018-Feb-19 23:31N 30°04' W 093°27'3 5.2
2018-Feb-19 23:00N 30°04' W 093°24'2 3.4
2018-Feb-19 22:30N 30°04' W 093°22'0 0.6
2018-Feb-19 22:00N 30°04' W 093°22'0 0.7
2018-Feb-19 21:30N 30°04' W 093°22'0 0.4
2018-Feb-19 21:00N 30°04' W 093°22'0 0.5
2018-Feb-19 20:31N 30°04' W 093°22'0 0.2
2018-Feb-19 20:00N 30°04' W 093°22'0 0.1
2018-Feb-19 19:31N 30°04' W 093°22'1 1.0
2018-Feb-19 19:00N 30°04' W 093°21'1 2.4
2018-Feb-19 18:30N 30°05' W 093°20'0 0.1
2018-Feb-19 18:00N 30°04' W 093°20'0 0.0
2018-Feb-19 17:31N 30°04' W 093°20'0 0.1
2018-Feb-19 17:00N 30°05' W 093°20'2 3.8
2018-Feb-19 16:30N 30°06' W 093°19'1 2.9
2018-Feb-19 16:01N 30°05' W 093°18'1 1.8
2018-Feb-19 15:31N 30°05' W 093°17'0 0.1
2018-Feb-19 15:00N 30°05' W 093°17'0 0.0
2018-Feb-19 14:28N 30°05' W 093°17'0 0.1
2018-Feb-19 13:55N 30°05' W 093°17'0 0.7
2018-Feb-19 13:31N 30°05' W 093°17'0 0.0
2018-Feb-19 13:00N 30°05' W 093°17'0 0.0
2018-Feb-19 12:30N 30°05' W 093°17'0 0.0
2018-Feb-19 12:01N 30°05' W 093°17'0 0.0
2018-Feb-19 11:30N 30°05' W 093°17'0 0.0
2018-Feb-19 10:59N 30°05' W 093°17'0 0.0
2018-Feb-19 10:31N 30°05' W 093°17'0 0.0
2018-Feb-19 10:00N 30°05' W 093°17'0 0.0
2018-Feb-19 09:29N 30°05' W 093°17'0 0.0
2018-Feb-19 09:00N 30°05' W 093°17'0 0.0
2018-Feb-19 08:30N 30°05' W 093°17'0 0.0
2018-Feb-19 08:01N 30°05' W 093°17'0 0.0
2018-Feb-19 07:31N 30°05' W 093°17'0 0.0
2018-Feb-19 06:58N 30°05' W 093°17'0 0.6
2018-Feb-19 06:31N 30°05' W 093°17'1 2.8
2018-Feb-19 06:00N 30°03' W 093°16'2 4.3
2018-Feb-19 05:29N 30°02' W 093°14'2 4.1
2018-Feb-19 05:00N 29°60' W 093°13'0 0.1
2018-Feb-19 04:31N 29°60' W 093°13'0 0.2
2018-Feb-19 04:00N 29°60' W 093°13'0 0.2
2018-Feb-19 03:31N 29°60' W 093°13'0 0.2
2018-Feb-19 03:01N 29°60' W 093°13'0 0.0
2018-Feb-19 02:31N 29°60' W 093°13'1 2.8
2018-Feb-19 02:00N 29°59' W 093°12'2 3.4
2018-Feb-19 01:31N 29°57' W 093°11'2 3.9
2018-Feb-19 01:00N 29°56' W 093°09'2 4.3
2018-Feb-19 00:30N 29°56' W 093°07'3 5.1
2018-Feb-18 23:57N 29°56' W 093°03'36 4.2
2018-Feb-18 15:17N 29°51' W 092°22'2 2.2
2018-Feb-18 14:32N 29°51' W 092°20'0 1.4
2018-Feb-18 14:30N 29°51' W 092°20'1 1.5
2018-Feb-18 13:57N 29°50' W 092°19'1 3.3
2018-Feb-18 13:31N 29°50' W 092°18'0 0.1
2018-Feb-18 13:01N 29°49' W 092°18'0 0.3
2018-Feb-18 12:30N 29°49' W 092°17'0 0.0
2018-Feb-18 11:59N 29°49' W 092°17'0 0.0
2018-Feb-18 11:31N 29°49' W 092°17'0 0.0
2018-Feb-18 11:01N 29°49' W 092°17'0 0.0
2018-Feb-18 10:31N 29°49' W 092°17'0 0.0
2018-Feb-18 10:01N 29°49' W 092°17'0 0.0
2018-Feb-18 09:30N 29°49' W 092°17'0 0.0
2018-Feb-18 09:01N 29°49' W 092°17'0 0.0
2018-Feb-18 08:31N 29°49' W 092°17'0 0.0
2018-Feb-18 08:00N 29°49' W 092°17'0 0.0
2018-Feb-18 07:31N 29°49' W 092°17'0 0.0
2018-Feb-18 07:01N 29°49' W 092°17'0 0.0
2018-Feb-18 06:30N 29°49' W 092°17'0 0.0
2018-Feb-18 06:01N 29°49' W 092°17'0 0.0
2018-Feb-18 05:30N 29°49' W 092°17'0 0.0
2018-Feb-18 05:00N 29°49' W 092°17'0 0.0
2018-Feb-18 04:30N 29°49' W 092°17'0 0.0
2018-Feb-18 04:00N 29°49' W 092°17'1 1.3
2018-Feb-18 03:31N 29°49' W 092°17'1 1.9
2018-Feb-18 03:01N 29°48' W 092°16'2 4.2
2018-Feb-18 02:30N 29°48' W 092°14'2 3.7
2018-Feb-18 02:00N 29°47' W 092°12'1 2.4
2018-Feb-18 01:31N 29°47' W 092°10'3 5.0
2018-Feb-18 01:00N 29°47' W 092°08'2 4.7
2018-Feb-18 00:31N 29°48' W 092°05'2 4.6
2018-Feb-18 00:00N 29°49' W 092°03'  
2018-Feb-12 13:15N 29°56' W 093°07'1 4.7
2018-Feb-12 13:01N 29°56' W 093°08'2 4.5
2018-Feb-12 12:30N 29°57' W 093°10'2 4.7
2018-Feb-12 11:59N 29°59' W 093°12'2 4.3
2018-Feb-12 11:27N 30°01' W 093°14'2 3.9
2018-Feb-12 10:59N 30°02' W 093°15'2 3.9
2018-Feb-12 10:31N 30°04' W 093°16'2 3.7
2018-Feb-12 09:55N 30°05' W 093°18'1 2.5
2018-Feb-12 09:25N 30°06' W 093°19'0 0.1
2018-Feb-12 09:01N 30°06' W 093°19'0 0.0
2018-Feb-12 08:29N 30°06' W 093°19'0 0.1
2018-Feb-12 08:00N 30°06' W 093°19'0 0.1
2018-Feb-12 07:31N 30°06' W 093°19'0 0.0
2018-Feb-12 06:57N 30°06' W 093°19'0 1.0
2018-Feb-12 06:30N 30°06' W 093°19'1 1.2
2018-Feb-12 05:55N 30°05' W 093°20'0 0.0
2018-Feb-12 05:31N 30°05' W 093°20'0 0.0
2018-Feb-12 05:00N 30°05' W 093°20'0 0.0
2018-Feb-12 04:27N 30°05' W 093°20'0 0.0
2018-Feb-12 03:57N 30°05' W 093°20'0 0.0
2018-Feb-12 03:30N 30°05' W 093°20'0 0.0
2018-Feb-12 02:59N 30°05' W 093°20'0 0.0
2018-Feb-12 02:29N 30°05' W 093°20'0 0.0
2018-Feb-12 02:01N 30°05' W 093°20'0 0.0
2018-Feb-12 01:30N 30°05' W 093°20'0 0.0
2018-Feb-12 01:00N 30°05' W 093°20'0 0.0
2018-Feb-12 00:30N 30°05' W 093°20'0 0.0
2018-Feb-12 00:01N 30°05' W 093°20'0 0.0
2018-Feb-11 23:31N 30°05' W 093°20'0 0.0
2018-Feb-11 22:59N 30°05' W 093°20'2 3.5
2018-Feb-11 22:30N 30°04' W 093°21'3 5.1
2018-Feb-11 22:00N 30°04' W 093°24'3 4.8
2018-Feb-11 21:29N 30°04' W 093°27'3 4.9
2018-Feb-11 20:55N 30°04' W 093°30'5 4.8
2018-Feb-11 19:48N 30°04' W 093°36'2 4.5
2018-Feb-11 19:19N 30°04' W 093°39'2 4.6
2018-Feb-11 18:59N 30°04' W 093°40'2 4.5
2018-Feb-11 18:30N 30°03' W 093°43'2 3.4
2018-Feb-11 18:00N 30°02' W 093°44'2 4.2
2018-Feb-11 17:30N 30°00' W 093°46'2 4.3
2018-Feb-11 17:00N 29°59' W 093°48'2 4.8
2018-Feb-11 16:30N 29°58' W 093°50'2 4.4
2018-Feb-11 16:00N 29°57' W 093°52'1 1.4
2018-Feb-11 15:30N 29°56' W 093°52'0 0.0
2018-Feb-11 14:58N 29°56' W 093°52'0 0.0
2018-Feb-11 14:30N 29°56' W 093°52'0 0.0
2018-Feb-11 14:00N 29°56' W 093°52'0 0.0
2018-Feb-11 13:30N 29°56' W 093°52'0 0.0
2018-Feb-11 13:00N 29°56' W 093°52'0 0.0
2018-Feb-11 12:26N 29°56' W 093°52'0 0.0
2018-Feb-11 11:56N 29°56' W 093°52'0 0.0
2018-Feb-11 11:30N 29°56' W 093°52'0 0.0
2018-Feb-11 11:00N 29°56' W 093°52'0 0.0
2018-Feb-11 10:21N 29°56' W 093°52'0 0.0
2018-Feb-11 09:58N 29°56' W 093°52'0 0.0
2018-Feb-11 09:30N 29°56' W 093°52'0 0.0
2018-Feb-11 09:00N 29°56' W 093°52'0 0.0
2018-Feb-11 08:30N 29°56' W 093°52'0 0.0
2018-Feb-11 07:59N 29°56' W 093°52'0 0.0
2018-Feb-11 07:30N 29°56' W 093°52'0 0.0
2018-Feb-11 07:00N 29°56' W 093°52'0 0.0
2018-Feb-11 06:26N 29°56' W 093°52'0 0.0
2018-Feb-11 06:00N 29°56' W 093°52'0 0.0
2018-Feb-11 05:30N 29°56' W 093°52'0 0.0
2018-Feb-11 05:00N 29°56' W 093°52'0 0.0
2018-Feb-11 04:26N 29°56' W 093°52'0 0.0
2018-Feb-11 03:57N 29°56' W 093°52'0 0.1
2018-Feb-11 03:30N 29°56' W 093°52'0 0.1
2018-Feb-11 03:00N 29°56' W 093°52'0 0.0
2018-Feb-11 02:30N 29°56' W 093°52'0 0.0
2018-Feb-11 02:00N 29°56' W 093°52'0 0.0
2018-Feb-11 01:30N 29°56' W 093°52'2 3.9
2018-Feb-11 01:00N 29°54' W 093°54'3 6.2
2018-Feb-11 00:30N 29°52' W 093°56'3 5.7
2018-Feb-11 00:00N 29°50' W 093°58'2 4.4
2018-Feb-10 23:30N 29°49' W 093°60'2 4.5
2018-Feb-10 23:00N 29°47' W 094°02'2 4.1
2018-Feb-10 22:30N 29°46' W 094°03'2 3.3
2018-Feb-10 22:00N 29°45' W 094°05'2 3.4
2018-Feb-10 21:30N 29°44' W 094°06'2 3.9
2018-Feb-10 21:00N 29°42' W 094°08'2 3.7
2018-Feb-10 20:30N 29°41' W 094°10'1 2.8
2018-Feb-10 20:00N 29°41' W 094°12'1 2.6
2018-Feb-10 19:30N 29°40' W 094°13'2 3.7
2018-Feb-10 19:00N 29°40' W 094°15'4 2.8
2018-Feb-10 17:30N 29°38' W 094°19'0 0.0
2018-Feb-10 16:36N 29°38' W 094°19'0 0.1
2018-Feb-10 16:30N 29°38' W 094°19'0 0.0
2018-Feb-10 16:00N 29°38' W 094°19'0 0.1
2018-Feb-10 15:22N 29°38' W 094°19'0 0.0
2018-Feb-10 15:00N 29°38' W 094°19'0 0.1
2018-Feb-10 14:28N 29°38' W 094°19'0 0.5
2018-Feb-10 14:00N 29°37' W 094°19'1 2.3
2018-Feb-10 13:25N 29°37' W 094°21'  

Dump ship's entire track history